Flag for U.S.A. Weather past 2 weeks in Wilmington, North Carolina, U.S.A.

Now
65 °F

Sunny.


Feels Like: 65 °F
Forecast: 59 / 74 °F
Wind: 15 mph from West

Location: New Hanover International Airport

Current Time: Apr 21, 2015 at 9:12:41 AM

Latest Report: Apr 21, 2015 at 7:53 AM


Visibility: 10 mi

Pressure: 29.84 "Hg

Humidity: 78%

Dew point: 58 °F

Location of WilmingtonLocation

Historic Weather in Wilmington — Graph

°F

Wilmington temperature yesterday

Maximum temperature yesterday: 80 °F (at 1:53 PM)
Minimum temperature yesterday: 66 °F (at 6:53 AM)
Average temperature yesterday: 72 °F

Past Weeks' High & Low Weather Summary

 TemperatureHumidityPressure
High82 °F (Apr 8, 1:53 PM)97% (Apr 7, 9:53 PM)30.36 "Hg (Apr 7, 9:53 PM)
Low50 °F (Apr 12, 6:53 AM)36% (Apr 6, 12:53 PM)29.72 "Hg (Apr 20, 5:53 PM)
Average68 °F80%30.10 "Hg
* Reported Apr 6 7:53 AM — Apr 21 7:53 AM, Wilmington, Weather by CustomWeather, © 2015

Note: Actual official high and low records may vary slightly from our data, if they occured in-between our weather recording intervals... More about our weather records

Advertising

Wilmington weather history for previous 24 hours

 ConditionsComfort  
Time TempWeatherWind HumidityBarometerVisibility
7:53 AM
Tue, Apr 21
65 °FSunny.15 mph78%29.84 "Hg10 mi
6:53 AM63 °FClear.12 mph84%29.82 "Hg10 mi
5:53 AM64 °FClear.12 mph84%29.79 "Hg10 mi
4:53 AM65 °FClear.12 mph81%29.78 "Hg10 mi
3:53 AM67 °FClear.14 mph79%29.78 "Hg10 mi
2:53 AM68 °FClear.14 mph73%29.76 "Hg10 mi
1:53 AM70 °FClear.16 mph68%29.76 "Hg10 mi
12:53 AM71 °FPassing clouds.18 mph66%29.75 "Hg10 mi
11:53 PM
Mon, Apr 20
70 °FPassing clouds.13 mph79%29.77 "Hg10 mi
10:53 PM69 °FOvercast.10 mph81%29.77 "Hg10 mi
9:53 PM68 °FPassing clouds.13 mph87%29.77 "Hg10 mi
8:53 PM69 °FClear.13 mph84%29.78 "Hg10 mi
7:53 PM69 °FSunny.17 mph84%29.77 "Hg10 mi
6:53 PM70 °FSunny.12 mph81%29.74 "Hg10 mi
5:53 PM72 °FSunny.13 mph73%29.72 "Hg10 mi
4:53 PM74 °FSunny.9 mph71%29.73 "Hg10 mi
3:53 PM74 °FSunny.9 mph71%29.75 "Hg10 mi
2:53 PM78 °FSunny.10 mph64%29.78 "Hg10 mi
1:53 PM80 °FScattered clouds.13 mph62%29.79 "Hg10 mi
12:53 PM79 °FSunny.14 mph56%29.79 "Hg10 mi
11:53 AM78 °FPassing clouds.13 mph62%29.80 "Hg10 mi
10:53 AM75 °FPassing clouds.9 mph69%29.81 "Hg10 mi
9:53 AM73 °FPassing clouds.16 mph74%29.80 "Hg10 mi
Weather by CustomWeather, © 2015

See weather overviewHow to use our weather pages